Regional Weather Roundup
Issued by NWS

Home | Current Version | Previous Version | Graphics & Text | Print | Product List | Glossary On
Versions: 1 2 3 4 5 6 7 8 9 10 11 12 13 14 15 16 17 18 19 20 21 22 23 24 25 26 27 28 29 30 31 32 33 34 35 36 37 38 39 40 41 42 43 44 45 46 47 48 49 50
283
ASUS44 KLIX 300110
RWRLA
LOUISIANA WEATHER ROUNDUP
NATIONAL WEATHER SERVICE NEW ORLEANS LA
800 PM CDT FRI AUG 29 2014

NOTE: "FAIR" INDICATES FEW OR NO CLOUDS BELOW 12,000 FEET WITH NO
      SIGNIFICANT WEATHER AND/OR OBSTRUCTIONS TO VISIBILITY.
      SKY/WX - SKY CONDITION AND SIGNIFICANT WEATHER.
      TMP - AIR TEMPERATURE.    DP   - DEWPOINT TEMPERATURE.
      RH  - RELATIVE HUMIDITY.  PRES - PRESSURE.
      HX  - HEAT INDEX.         WCI  - WIND CHILL INDEX.

*  THESE STATIONS ARE NOT NWS OR FAA STATIONS AND ARE NOT UNDER
   NWS QUALITY CONTROL.

LAZ040-048-061>063-065-066-069-300200-
SOUTHEAST LOUISIANA

CITY           SKY/WX    TMP DP  RH WIND       PRES   REMARKS
N.O. AUDUBON     N/A     79  78  98 MISG        N/A
N.O. INTL ARPT CLOUDY    79  75  87 SE8       29.94S
N.O. LAKEFRONT CLOUDY    79  76  90 SE12      29.94F
N.O. DOWNTOWN* MOCLDY    79  72  78 SE3       29.95R
SLIDELL        CLOUDY    77  75  93 E5        29.95F
BATON ROUGE    CLOUDY    78  75  90 CALM      29.93F
BOOTHVILLE     CLOUDY    78  77  96 CALM      29.98F
BELLE CHASSE   CLOUDY    79  74  84 SE10      29.93F
BOGALUSA*      CLOUDY    77  73  87 SE3       29.99S
GALLIANO*      NOT AVBL
NEW ROADS*     FAIR      78  73  84 SE5       29.94S
GONZALES*      FAIR      77  77 100 SE5       29.94R
HAMMOND*       CLOUDY    77  72  83 E7        29.95F
HOUMA*         CLOUDY    75  73  92 E3        29.93F
PORT FOURCHON* CLEAR     79  73  83 SE6       29.96R

$$

LAZ041-044-053-054-300200-
SOUTHWEST LOUISIANA

CITY           SKY/WX    TMP DP  RH WIND       PRES   REMARKS
LAKE CHARLES   RAIN      78  76  93 E6        29.90F
LAFAYETTE      CLOUDY    78  75  90 CALM      29.94R
PATTERSON        N/A     75  72  88 CALM      29.96F
SALT POINT       N/A     79  75  87 E6        29.93F
NEW IBERIA     CLOUDY    77  73  87 SE6       29.94S
CHENAULT AIRPK LGT RAIN  79  73  83 E6        29.92S

$$

LAZ027-028-300200-
CENTRAL LOUISIANA

CITY           SKY/WX    TMP DP  RH WIND       PRES   REMARKS
FORT POLK      CLOUDY    76  74  93 E7        29.93S
ALEXANDRIA INT CLOUDY    80  74  81 S5        29.92R
ALEXANDRIA     CLOUDY    80  74  81 S3        29.94S

$$

LAZ001-002-300200-
NORTHWEST LOUISIANA

CITY           SKY/WX    TMP DP  RH WIND       PRES   REMARKS
SHREVEPORT     TSTM      78  73  84 NW5       29.91R
BARKSDALE AFB  CLOUDY    84  70  61 S16G28    29.91R
DTN SHREVEPORT LGT RAIN  84  72  65 S9        29.90R

$$

LAZ014-016-300200-
NORTHEAST LOUISIANA

CITY           SKY/WX    TMP DP  RH WIND       PRES   REMARKS
MONROE         MOCLDY    83  72  69 S3        29.94R
TALLULAH       MOCLDY    80  72  76 S3        29.93R

$$




USA.gov is the U.S. government's official web portal to all federal, state and local government web resources and services.